Accueil
METAR-TAF:

METAR-TAF

Aéroports :

Meiringen, Suisse

latitude: 46-44-25N, longitude: 8-06-36E, altitude: 577 m

Observation

Le bulletin a été fait il y a 44 minutes, à 06:50 UTC
Vent 3 kt de direction variable
Température 2°C
Humidité 100%
Pression 1035 hPa
Visibilité 10 km ou plus
Quelques nuages à une hauteur de 1500 ft
Nuages fragmentés à une hauteur de 2100 ft
Ciel couvert à une hauteur de 2800 ft

METAR: LSMM 050650Z AUTO VRB03KT 9999NDV FEW015 BKN021 OVC028 02/02 Q1035 RMK

Heure: 08:34 (07:34 UTC)


TAF: absent

Observations et prévisions météorologiques de plus de 4000 aéroports (messages METAR et TAF).

Les stations disponibles sont représentées par des disques jaunes et rouges sur la carte.

Passer la souris dessus pour voir le nom de la station.

Cliquer dessus pour voir les observations et prévisions météorologiques.

Pour changer de carte: cliquez sur les boutons verts avec une croix noire pour zoomer, sur le bouton vert avec un tiret pour effectuer un zoom arrière, ou sur les flèches vertes pour les cartes adjacentes.


METAR-TAF: